Theta_e
322 324 327 330 338 339 341 341 347 348 349 346 346 346 346 345 348 353 352 353 351 351 353 340 332 323 329 340 342 341 339 339 339 337 330 325 325 326 326 328 329 330 330 331 331 332 333 333 338
322 325 328 333 341 339 339 342 342 346 346 345 346 346 346 348 346 347 351 346 349 352 353 351 337 326 323 336 339 340 340 339 340 337 331 326 326 326 326 326 326 327 328 329 330 330 330 330 330
323 326 331 337 337 340 339 340 340 344 345 346 346 345 344 346 345 348 349 350 348 350 353 346 339 333 324 323 333 337 338 339 338 335 332 327 326 326 327 327 327 327 327 327 327 328 327 327 327
325 326 331 336 337 337 338 340 341 344 345 346 345 345 344 344 346 350 350 351 350 351 351 339 335 338 331 322 322 326 329 334 334 334 331 328 327 327 327 328 328 328 328 328 328 328 328 328 327
322 328 334 335 335 335 338 339 341 342 343 344 346 345 343 346 345 342 344 351 351 350 350 337 331 333 336 329 323 324 327 328 330 330 329 330 329 329 328 327 327 327 329 329 330 331 331 331 329
326 327 332 334 334 334 334 339 339 341 343 344 346 341 342 348 348 348 348 349 350 349 348 337 334 335 338 335 331 325 323 324 326 327 328 329 328 327 327 326 325 325 327 330 330 331 332 332 331
326 328 328 329 331 331 332 334 337 339 341 342 343 339 346 350 347 345 346 347 350 345 340 347 339 335 339 336 335 333 328 323 323 324 325 324 324 324 325 325 325 325 326 328 329 330 330 330 330
324 327 327 327 328 331 330 331 331 337 337 344 335 332 344 347 345 343 344 346 349 344 345 347 343 347 340 339 338 339 338 336 332 326 325 325 326 326 327 327 327 327 328 328 329 330 330 330 330
320 327 328 327 330 329 327 329 335 333 335 332 330 331 337 351 346 345 343 343 343 346 346 345 346 342 350 345 339 336 332 331 332 332 331 331 331 335 331 330 330 330 331 331 331 332 332 333 333
324 327 327 326 327 328 326 327 332 331 331 332 329 333 339 349 345 343 341 341 344 344 346 347 347 338 340 340 336 339 338 340 338 338 339 340 345 344 342 340 334 333 332 332 332 333 333 333 338
325 326 325 324 324 324 324 324 325 327 330 327 325 327 335 344 347 344 343 340 341 343 344 349 346 340 346 348 344 341 341 334 339 339 343 346 348 351 349 349 348 342 343 339 344 340 342 346 345
324 323 324 322 321 322 323 322 322 323 323 322 324 331 331 334 333 336 336 338 343 343 343 348 348 340 344 346 344 342 341 327 327 324 328 327 343 348 350 354 353 353 352 350 349 347 346 346 347
324 323 322 321 321 322 322 322 323 324 322 324 332 334 334 333 332 331 339 348 347 344 345 348 346 343 342 344 345 342 331 322 317 316 315 315 321 322 332 342 345 347 347 350 350 349 349 348 348
323 323 323 322 322 321 323 323 323 323 323 324 325 327 329 333 336 335 338 346 348 345 344 343 344 341 343 344 341 325 317 316 315 314 314 314 314 313 315 322 330 337 341 343 345 347 346 343 343
323 324 324 323 322 322 322 324 325 323 324 324 325 325 325 325 324 329 340 345 343 343 344 342 343 343 342 332 319 316 316 316 315 315 315 315 315 315 315 323 325 328 325 330 338 341 344 346 344
324 324 325 324 323 321 322 326 324 324 325 326 326 326 326 327 325 325 333 341 338 339 342 339 342 338 323 317 316 316 315 320 317 315 315 315 315 315 315 321 319 315 324 331 331 330 331 334 335
325 326 325 324 323 324 324 326 324 324 325 326 327 327 328 328 328 327 327 333 335 337 337 336 332 324 317 317 316 315 315 319 315 315 315 313 313 312 312 312 312 313 315 327 330 332 333 332 330
325 324 324 325 323 323 325 326 324 324 325 326 326 327 328 328 329 328 327 327 329 332 333 329 323 319 317 316 315 315 315 315 314 315 316 317 319 316 315 316 312 312 313 316 314 315 324 332 334
324 324 324 324 322 324 325 325 325 324 324 325 325 326 327 328 328 328 328 328 328 329 328 327 321 318 317 321 322 321 321 319 320 317 317 318 319 319 317 320 317 316 317 313 312 312 321 326 332
324 324 324 323 322 323 325 325 324 323 323 323 324 324 325 325 326 328 328 328 327 327 327 326 324 318 320 322 319 320 323 323 323 323 319 317 317 317 318 317 318 317 318 316 313 312 316 321 329
324 324 324 324 323 323 324 325 324 323 322 322 322 322 322 322 323 324 327 327 327 327 327 327 324 321 322 319 325 325 325 324 324 325 324 324 323 318 317 317 317 317 317 318 312 315 313 319 321
323 322 321 322 323 324 323 323 326 324 324 322 322 321 321 320 320 320 321 322 322 322 323 325 324 323 323 322 321 321 323 324 324 324 323 323 323 321 318 317 317 317 318 317 315 312 310 317 319
322 320 320 320 321 322 321 322 326 324 323 323 322 321 321 320 320 319 318 318 318 318 318 318 319 318 317 318 321 321 321 321 320 320 321 321 322 323 323 322 320 318 317 318 315 312 311 312 317
319 319 319 320 320 322 322 320 319 323 323 323 321 320 320 319 318 318 318 317 317 316 315 316 316 317 317 317 316 315 314 315 315 315 316 316 318 319 321 323 323 322 319 318 317 314 312 310 309
318 319 320 320 321 319 321 319 320 323 322 321 321 320 319 318 317 317 316 315 315 314 314 314 313 314 315 315 316 316 316 314 312 314 314 315 316 317 318 322 322 322 321 318 315 314 313 313 313
318 318 320 318 319 317 319 320 324 322 319 319 319 319 318 317 316 316 315 315 314 314 314 313 313 312 312 314 314 315 315 314 313 313 313 314 315 315 316 319 321 322 322 321 317 315 315 315 314
319 320 319 322 321 321 319 320 321 320 320 319 318 317 317 316 315 315 314 314 313 313 312 312 311 310 311 311 312 313 314 314 313 313 312 312 312 313 314 317 319 320 321 320 318 316 316 314 313
320 318 322 320 323 317 316 316 317 321 320 319 318 317 316 315 314 313 312 312 311 311 310 310 311 311 311 311 311 312 312 312 312 311 310 310 311 312 312 313 316 317 319 318 317 315 315 314 314
320 319 319 319 319 319 318 317 319 318 318 318 317 316 315 314 313 312 311 310 310 310 310 310 310 310 310 310 311 311 311 310 309 308 309 309 310 310 310 310 313 314 317 316 314 314 314 313 313
318 319 319 321 321 320 320 321 319 317 317 317 316 315 314 313 312 311 310 310 309 310 310 310 309 309 309 309 309 308 307 307 306 306 306 307 307 308 308 310 311 312 313 312 311 312 313 312 312
Wind_Speed
6 5 2 3 3 1 7 9 3 6 4 3 5 2 0 3 6 3 6 7 9 11 10 13 12 12 15 17 20 19 18 16 14 12 11 11 11 10 8 8 7 7 6 6 7 7 7 7 7
2 2 1 6 3 1 6 3 8 7 5 5 4 2 2 6 2 6 8 11 12 9 10 9 12 13 15 17 18 18 17 15 13 11 11 10 10 9 8 7 6 4 4 3 3 4 4 5 5
3 3 7 4 3 6 7 3 8 5 3 2 1 1 3 5 7 10 6 10 10 10 8 10 11 13 15 16 18 17 16 15 12 11 10 10 9 8 6 5 3 3 2 0 1 2 2 3 3
2 4 6 11 5 7 6 7 5 5 3 1 2 3 5 8 9 7 8 10 11 9 8 11 11 12 13 15 16 16 15 15 13 12 10 10 8 7 6 4 3 3 3 3 3 3 3 4 4
4 6 4 3 3 6 4 5 6 3 4 2 1 6 7 9 8 7 10 12 12 9 8 7 10 12 14 15 15 14 15 14 14 13 12 10 8 6 5 5 5 5 5 5 5 5 5 6 6
9 5 8 6 5 7 3 3 3 2 2 3 2 4 9 8 9 10 11 11 11 10 8 6 10 13 14 12 11 12 12 12 12 12 11 10 9 9 9 8 8 8 7 7 8 7 8 8 8
12 8 2 2 6 7 3 2 5 2 1 2 4 2 7 9 12 12 12 12 10 9 7 7 8 12 14 13 12 11 9 10 10 10 11 10 10 10 10 10 10 10 10 9 10 10 10 10 11
4 5 7 6 6 9 5 4 1 5 6 4 1 6 10 10 14 12 9 10 11 10 8 9 9 11 12 11 10 8 7 6 6 7 7 8 8 10 11 11 12 12 12 12 12 12 13 13 13
2 7 7 5 6 10 8 4 2 2 3 3 1 5 3 9 13 9 9 9 10 10 10 11 11 12 12 11 10 8 6 4 4 5 5 6 8 9 10 11 12 13 13 13 14 13 14 15 15
7 4 5 4 6 10 7 1 5 4 3 6 3 2 2 10 10 8 8 12 9 9 10 11 11 10 12 11 10 7 5 3 5 4 4 4 8 9 9 11 12 13 13 13 13 13 13 14 13
1 9 8 7 5 1 4 5 1 4 4 14 13 3 1 6 7 6 5 7 10 7 7 7 8 8 8 9 8 6 6 5 6 5 6 8 9 9 9 9 10 11 12 12 12 10 10 9 11
11 8 4 6 4 2 2 5 12 13 11 11 4 4 0 3 4 4 3 2 1 4 6 9 8 10 12 12 10 8 7 6 4 5 7 9 6 9 11 10 10 11 11 12 11 11 11 11 12
9 7 4 4 7 8 10 8 8 18 18 8 4 4 3 5 5 5 6 3 1 2 3 6 9 13 14 14 13 12 8 4 5 6 6 8 8 12 12 11 11 11 12 13 15 14 14 13 13
5 5 4 2 7 4 9 11 3 17 15 9 7 5 6 8 10 11 10 8 6 7 5 11 11 13 13 15 11 9 7 5 4 2 4 6 7 9 10 10 8 9 10 12 14 16 17 17 17
11 9 8 7 5 5 5 9 10 13 11 9 9 10 11 11 13 14 13 10 9 10 13 12 13 12 11 9 8 7 5 3 1 2 4 6 7 7 6 6 7 9 12 14 14 15 16 18 20
8 6 8 9 5 4 8 7 9 10 9 9 10 10 11 11 12 11 9 10 9 7 12 11 11 10 9 9 9 7 5 2 1 3 5 6 7 7 7 6 7 10 8 10 12 13 17 20 22
8 4 3 8 5 3 6 8 7 7 7 8 9 10 12 13 14 12 5 5 6 6 10 13 10 11 12 10 9 7 4 2 3 4 4 6 7 8 9 9 10 10 10 8 9 10 11 14 18
5 6 3 2 4 2 5 7 6 6 6 8 9 11 13 15 17 15 11 7 2 2 7 10 11 11 11 10 7 4 3 3 3 2 3 5 6 8 10 11 12 12 11 10 14 15 12 13 13
1 4 4 2 3 2 2 4 5 5 5 8 9 12 14 16 16 16 15 12 8 3 3 8 8 9 8 5 4 4 3 4 3 4 7 9 8 10 13 9 14 14 13 15 15 14 13 10 10
4 5 2 3 1 7 7 5 4 5 7 7 8 11 13 14 16 16 15 14 11 8 6 4 1 2 2 4 5 6 6 6 6 8 12 12 13 14 13 15 14 16 12 17 18 17 12 11 9
1 6 3 8 2 6 6 11 10 7 6 6 7 9 11 13 14 15 14 13 10 9 6 4 1 3 4 7 6 8 9 12 12 12 12 13 14 19 20 20 19 19 20 11 19 13 14 10 11
9 3 7 9 9 9 3 9 12 10 8 5 4 5 7 10 10 10 11 12 12 11 11 9 10 12 13 14 14 15 14 14 17 19 19 20 20 22 22 25 23 22 17 17 15 16 14 11 11
6 7 7 9 11 11 13 7 10 10 9 7 3 2 4 7 9 10 10 10 10 11 11 12 13 13 15 16 18 19 21 25 24 21 22 23 26 24 24 23 23 26 23 20 19 16 15 10 10
5 8 7 6 6 9 4 5 4 6 9 7 4 1 4 7 9 9 10 11 13 13 15 17 18 17 16 16 17 21 26 28 33 33 37 28 25 23 22 22 23 23 22 20 16 15 13 12 12
8 8 4 4 5 5 3 7 3 5 3 2 2 2 3 7 9 11 13 16 18 20 21 22 22 22 23 23 22 21 22 26 27 22 23 24 24 23 22 22 24 24 24 22 23 20 17 14 12
5 6 4 5 6 11 7 5 5 4 3 2 2 4 8 11 14 17 19 21 23 23 24 24 23 23 22 23 24 25 25 26 27 27 26 27 28 27 25 23 26 26 25 23 23 24 17 17 16
3 1 4 5 8 8 1 4 10 7 5 4 4 8 12 15 18 20 22 23 24 25 25 26 26 28 27 28 28 28 28 28 29 30 30 31 32 30 27 24 26 27 27 25 21 21 17 20 23
6 3 4 2 4 9 6 8 6 6 8 4 9 11 15 18 22 24 24 26 27 26 26 27 28 29 30 30 29 30 30 30 32 34 36 34 32 30 29 28 29 28 29 25 21 20 19 20 21
6 4 1 4 4 5 8 5 6 8 8 8 16 20 20 22 25 25 28 28 29 29 29 30 30 31 32 31 31 30 31 33 33 34 32 31 31 31 32 32 31 31 28 25 23 21 21 21 21
3 3 3 3 3 7 10 14 6 4 11 12 17 19 22 24 26 28 30 31 32 32 32 33 33 34 33 32 30 32 35 33 33 29 30 30 31 30 31 27 31 37 33 30 26 23 24 23 23
Wind_Direction
338 19 107 285 254 242 102 89 45 103 158 95 102 136 61 18 352 25 128 148 146 157 164 162 160 157 162 162 168 171 171 168 162 157 155 152 148 144 138 129 119 112 107 104 97 87 76 71 63
345 74 259 274 235 188 67 61 77 51 70 137 124 145 146 92 95 120 130 163 149 162 163 165 165 161 167 170 170 174 176 177 172 168 165 160 157 152 147 141 131 122 113 102 92 81 70 57 45
108 184 260 271 257 181 149 118 106 104 140 201 130 119 93 88 115 128 140 156 154 156 164 179 172 166 167 173 180 178 177 179 180 178 174 169 164 160 157 155 157 158 151 127 35 24 28 19 13
169 220 229 246 108 52 82 116 115 131 128 233 3 105 96 99 129 136 141 149 145 153 161 178 173 174 171 168 176 182 179 184 182 182 180 177 175 173 173 181 203 223 232 249 279 301 317 324 326
211 238 244 268 105 127 85 102 157 152 64 68 277 93 95 121 116 154 162 149 152 154 161 169 169 178 175 167 168 172 176 177 181 181 181 187 189 197 207 211 224 242 248 252 264 280 292 297 299
224 266 247 189 158 140 130 161 209 284 15 79 208 128 101 145 126 130 145 155 149 146 143 174 168 171 177 168 163 167 170 174 181 186 192 200 209 217 226 232 235 242 248 250 255 265 278 286 290
262 237 249 223 164 156 121 238 236 341 79 134 23 124 98 143 145 125 134 139 146 148 160 155 167 177 174 172 170 159 162 179 185 197 207 216 224 232 238 243 246 249 250 251 255 260 266 272 278
256 261 195 200 173 122 134 173 261 222 86 114 29 19 95 154 157 145 131 137 147 147 156 155 161 166 174 180 167 165 164 180 189 207 216 229 240 247 247 249 250 252 252 253 252 255 260 264 267
231 235 203 153 183 116 144 170 162 95 146 137 95 16 66 159 169 179 176 151 153 160 170 168 162 165 172 176 174 176 165 175 204 213 234 244 252 250 259 260 262 260 261 264 266 265 266 269 269
245 217 67 47 72 132 134 274 151 217 167 205 248 331 143 168 171 181 189 185 173 175 179 175 172 168 169 170 168 151 138 144 193 200 231 247 240 245 246 257 261 259 261 262 266 269 270 266 264
319 97 122 103 84 28 124 140 155 266 191 10 337 81 177 201 202 207 207 205 218 218 190 186 176 166 164 172 163 166 172 184 204 212 240 245 253 266 268 266 275 270 267 266 273 275 275 267 253
114 99 96 85 57 210 141 108 78 48 7 339 321 8 342 206 215 225 246 217 213 175 180 178 188 194 194 195 192 206 201 213 221 245 266 274 284 274 259 259 256 270 269 259 258 261 259 253 256
116 116 100 105 92 70 101 66 99 29 8 17 20 351 320 288 257 259 268 309 295 191 200 174 207 217 223 221 221 220 217 223 249 265 278 282 280 275 280 278 278 260 260 264 267 267 267 266 267
147 137 128 107 91 100 98 61 10 4 1 6 9 343 318 299 287 275 274 284 300 248 228 230 228 223 224 222 222 221 231 235 236 274 312 312 301 294 286 290 290 287 282 280 270 265 264 267 268
153 151 129 84 138 133 151 75 35 4 9 7 355 333 323 320 310 284 276 277 263 252 240 246 235 231 219 212 212 220 224 215 243 311 307 314 315 313 299 299 300 296 290 292 286 281 277 273 268
199 240 194 81 152 144 223 107 43 13 17 24 17 5 349 337 339 330 283 269 271 250 270 247 238 216 206 209 210 211 203 175 256 300 308 318 317 318 310 313 296 292 307 303 302 289 276 272 270
194 174 168 122 61 161 251 116 47 30 38 40 36 31 25 16 10 0 339 291 271 246 268 249 219 209 209 208 209 205 207 208 268 290 313 312 323 331 329 317 310 302 293 306 305 305 294 281 272
150 178 195 242 80 108 106 111 85 56 55 52 49 46 42 37 27 21 17 13 353 193 256 223 216 219 218 219 217 225 256 277 285 299 311 334 343 340 346 337 335 324 310 302 294 293 292 300 290
279 262 266 92 90 215 88 125 93 78 77 70 56 51 46 44 39 37 38 39 42 49 252 225 228 226 219 209 211 243 234 245 257 268 288 307 305 309 316 320 319 319 317 315 306 300 301 297 290
262 269 229 201 109 279 179 157 133 113 86 71 60 54 49 46 42 39 42 42 44 47 48 49 42 265 276 289 265 249 254 258 255 269 279 289 294 299 302 302 303 304 308 309 309 309 303 295 291
321 304 289 298 257 252 233 201 181 152 130 100 75 59 48 44 40 37 34 34 32 25 21 17 323 251 275 251 291 283 275 277 286 284 288 288 283 295 294 295 293 295 297 294 306 306 310 296 286
284 19 293 280 274 289 236 290 192 166 162 149 107 54 34 22 24 25 22 19 18 21 13 5 332 316 312 301 290 282 284 283 278 282 286 282 285 283 281 282 278 282 278 280 283 291 300 304 293
12 319 296 288 272 289 231 256 106 174 193 170 168 48 24 9 2 358 359 356 356 358 350 346 342 331 321 312 297 288 281 277 279 285 288 291 290 284 274 262 257 265 268 266 265 275 283 291 291
309 261 251 262 258 241 107 263 235 183 237 168 196 278 344 344 339 337 336 334 330 331 329 324 320 313 308 305 300 295 291 287 286 285 284 287 286 280 275 269 256 249 242 246 253 259 276 277 282
326 310 307 234 207 280 102 265 308 100 147 275 251 281 316 325 325 324 320 318 314 315 315 315 308 303 298 294 287 282 282 281 285 287 284 282 281 281 278 272 259 250 247 239 250 258 261 276 278
354 333 311 302 319 315 236 262 76 93 150 186 264 306 303 318 321 316 312 310 309 308 310 311 309 307 303 295 288 280 278 283 281 284 281 278 279 280 279 271 266 252 243 239 241 249 256 254 275
59 347 9 300 265 265 340 209 191 170 187 221 300 314 314 315 313 312 312 310 307 305 304 304 304 302 300 295 290 285 279 280 283 285 285 283 279 275 274 272 268 255 241 237 237 243 251 256 264
336 96 227 187 297 311 324 312 310 190 246 240 280 310 313 310 311 311 311 310 307 303 302 302 300 300 299 297 291 287 281 279 283 285 285 284 278 276 274 268 265 255 242 232 236 243 252 257 261
169 192 312 302 288 293 309 3 51 316 329 309 314 317 312 314 312 312 312 310 307 304 302 302 301 300 299 296 292 287 284 283 285 286 285 280 278 277 274 268 258 254 242 233 239 240 244 251 261
281 279 293 280 262 261 282 292 49 354 315 304 298 307 311 308 310 311 313 312 310 306 304 303 302 299 297 295 289 288 287 286 285 284 285 282 281 277 274 266 256 248 246 244 244 247 249 253 256